Buffalo, WY

4:58 AM MDT on April 25, 2015 (GMT -0600)
Esponda Ranch | | Change Station
CLOSE
Current Station
Personal Weather Station
Location: Buffalo, WY
Elevation: 4665 ft
Nearby Weather Stations

Elev 4665 ft 44.32 °N, 106.67 °W | Updated 1 minute ago

Clear
Clear
45.2 °F
Feels Like 45 °F
N
3.0
Wind Variable Wind from SW
Gusts 3.0 mph

Today
High -- | Low -- °F
--% Chance of Precip.
Yesterday
High -- | Low -- °F
Precip. -- in
6:07 AM 8:03 PM
Waxing Crescent, 45% visible
Pressure 29.51 in
Visibility 10.0 miles
Clouds Clear
Windchill 45 °F
Dew Point 38 °F
Humidity 76%
Rainfall 0.00 in
Snow Depth Not available.
UV 0 out of 12
Pollen 9.70 out of 12
Air Quality Not available.
Flu Activity Local Activity
METAR KBYG 251053Z AUTO 34011KT 10SM CLR 08/02 A2962 RMK AO2 SLP992 T00830022 $

More Conditions Fewer Conditions

Pressure 29.51 in
Visibility 10.0 miles
Clouds Clear
Windchill 45 °F
Dew Point 38 °F
Humidity 76%
Rainfall 0.00 in
Snow Depth Not available.
UV 0 out of 12
Pollen 9.70 out of 12
Air Quality Not available.
Flu Activity Local Activity
METAR KBYG 251053Z AUTO 34011KT 10SM CLR 08/02 A2962 RMK AO2 SLP992 T00830022 $

More Conditions Fewer Conditions

10-Day Weather Forecast

Almanac

Astronomy

Apr. 25, 2015 Rise Set
Actual Time
Civil Twilight
Nautical Twilight
Astronomical Twilight
Moon
Length of Visible Light
Length of Day
Tomorrow will be .
, % of the Moon is Illuminated

Today's Extremes

State Highs State Lows

Community

WunderPhotos

Upload Photos

1,816,639 photos uploaded!

WunderBlogs® & News

Nearby

Air Quality

  Air Quality AQ Index Pollutant
Not available.

Snow Depth

Station Depth Elevation

Earthquake Activity

City Distance Mag. Time & Date
Minimum magnitude displayed is 2.5.

Coastal Water Temperatures

Place Temperature

Stations

Nearby Weather Stations

Station Location Temp. Windchill Dew Point Humidity Wind Precip. Elev Updated Type